Ono, PA

2:55 PM EST on February 14, 2016 (GMT -0500)
Muir Army Air Field

Weather History for KMUI - March, 2013

Change the Weather History Date:

Friday, March 15, 2013

  Actual Average Record
Temperature  
Mean Temperature 36 °F -  
Max Temperature 52 °F 44 °F 66 °F (2002)
Min Temperature 22 °F 30 °F 22 °F (2013)
Degree Days  
Heating Degree Days 28    
Moisture  
Dew Point 17 °F    
Average Humidity 48    
Maximum Humidity 77    
Minimum Humidity 36    
Precipitation  
Precipitation 0.00 in - - ()
Sea Level Pressure  
Sea Level Pressure 29.95 in    
Wind  
Wind Speed 8 mph (West)    
Max Wind Speed 22 mph    
Max Gust Speed 31 mph    
Visibility 10 miles    
Events      
Averages and records for this station are not official NWS values.
T = Trace of Precipitation, MM = Missing Value Source: NWS Daily Summary

Daily Weather History Graph

Daily Weather History Graph

Search for Another Location

Airport or City:

Trip Planner

Search our weather history database for the weather conditions in past years. The results will help you decide how hot, cold, wet, or windy it might be!

Date:

Astronomy

Mar. 15, 2013 Rise Set
Actual Time 7:17 AM EDT 7:13 PM EDT
Civil Twilight 6:50 AM EDT 7:40 PM EDT
Nautical Twilight 6:18 AM EDT 8:12 PM EDT
Astronomical Twilight 5:46 AM EDT 8:44 PM EDT
Moon 9:05 AM EDT (3/15) 11:26 PM EDT (3/15)
Length of Visible Light 12h 50m
Length of Day
11h 55m
Waxing Crescent, 15% of the Moon is Illuminated
Mar 15
Waxing Crescent
Mar 19
First Quarter
Mar 27
Full
Apr 3
Last Quarter
Apr 10
New

Hourly Weather History & Observations

Time (EDT) Temp. Windchill Dew Point Humidity Pressure Visibility Wind Dir Wind Speed Gust Speed Precip Events Conditions
12:07 AM 32.0 °F 24.8 °F 10.4 °F 41% 30.06 in 10.0 mi NW 8.1 mph 16.1 mph N/A   Clear
12:18 AM 32.0 °F 22.5 °F 10.4 °F 41% 30.06 in 10.0 mi WNW 12.7 mph 18.4 mph N/A   Light Drizzle
12:42 AM 32.0 °F 24.8 °F 10.4 °F 41% 30.06 in 10.0 mi WNW 8.1 mph 20.7 mph N/A   Clear
12:53 AM 32.0 °F 22.5 °F 10.4 °F 41% 30.06 in 10.0 mi West 12.7 mph 24.2 mph N/A   Light Drizzle
12:55 AM 31.8 °F 22.3 °F 10.0 °F 40% 30.06 in 10.0 mi West 12.7 mph 19.6 mph 0.00 in   Light Freezing Rain
1:02 AM 32.0 °F 22.1 °F 10.4 °F 41% 30.06 in 10.0 mi West 13.8 mph 20.7 mph N/A   Clear
1:50 AM 30.2 °F 23.4 °F 10.4 °F 44% 30.06 in 10.0 mi West 6.9 mph - N/A   Clear
1:55 AM 30.7 °F 23.3 °F 10.2 °F 42% 30.06 in 10.0 mi West 8.1 mph - 0.00 in   Light Freezing Rain
2:00 AM 30.2 °F 23.4 °F 10.4 °F 44% 30.06 in 10.0 mi West 6.9 mph - N/A   Clear
2:42 AM 30.2 °F 24.3 °F 8.6 °F 40% 30.06 in 10.0 mi WNW 5.8 mph - N/A   Light Freezing Rain
2:46 AM 30.2 °F 21.3 °F 8.6 °F 40% 30.05 in 10.0 mi West 10.4 mph - N/A   Clear
2:48 AM 30.2 °F 23.4 °F 8.6 °F 40% 30.05 in 10.0 mi West 6.9 mph 17.3 mph N/A   Light Freezing Rain
2:52 AM 30.2 °F 23.4 °F 8.6 °F 40% 30.06 in 10.0 mi West 6.9 mph 17.3 mph N/A   Clear
2:55 AM 30.7 °F 24.9 °F 9.5 °F 41% 30.05 in 10.0 mi WSW 5.8 mph 17.3 mph 0.00 in   Clear
3:02 AM 30.2 °F 20.8 °F 8.6 °F 40% 30.05 in 10.0 mi West 11.5 mph - N/A   Light Freezing Rain
3:12 AM 30.2 °F 21.9 °F 8.6 °F 40% 30.05 in 10.0 mi West 9.2 mph - N/A   Clear
3:48 AM 30.2 °F 25.4 °F 8.6 °F 40% 30.04 in 10.0 mi West 4.6 mph - N/A   Light Freezing Rain
3:55 AM 30.4 °F - 8.8 °F 40% 30.04 in 10.0 mi Calm Calm - 0.00 in   Light Freezing Rain
3:59 AM 30.2 °F - 8.6 °F 40% 30.04 in 10.0 mi Calm Calm - N/A   Clear
4:03 AM 30.2 °F - 8.6 °F 40% 30.04 in 10.0 mi Calm Calm - N/A   Light Freezing Rain
4:17 AM 30.2 °F - 8.6 °F 40% 30.04 in 10.0 mi Calm Calm - N/A   Clear
4:55 AM 25.3 °F - 12.7 °F 59% 30.03 in 10.0 mi Calm Calm - 0.00 in   Clear
5:05 AM 24.8 °F - 14.0 °F 64% 30.04 in 10.0 mi Calm Calm - N/A   Clear
5:11 AM 24.8 °F - 12.2 °F 59% 30.03 in 10.0 mi Calm Calm - N/A   Light Freezing Rain
5:18 AM 24.8 °F - 14.0 °F 64% 30.03 in 10.0 mi Calm Calm - N/A   Clear
5:51 AM 24.8 °F - 12.2 °F 59% 30.03 in 10.0 mi Calm Calm - N/A   Light Freezing Rain
5:55 AM 23.5 °F - 14.9 °F 70% 30.02 in 10.0 mi Calm Calm - 0.00 in   Light Freezing Rain
6:31 AM 23.0 °F - 14.0 °F 68% 30.03 in 10.0 mi Calm Calm - N/A   Clear
6:55 AM 22.5 °F - 15.1 °F 73% 30.02 in 10.0 mi Calm Calm - 0.00 in   Clear
7:55 AM 24.1 °F - 17.8 °F 77% 30.02 in 10.0 mi Calm Calm - N/A   Mostly Cloudy
8:55 AM 28.8 °F - 18.5 °F 66% 30.00 in 10.0 mi Calm Calm - N/A   Partly Cloudy
9:55 AM 36.5 °F 27.0 °F 20.7 °F 53% 29.96 in 10.0 mi SW 16.1 mph - N/A   Clear
10:55 AM 37.4 °F 28.2 °F 20.5 °F 51% 29.94 in 10.0 mi SW 16.1 mph - N/A   Overcast
11:55 AM 39.2 °F 30.8 °F 21.0 °F 48% 29.91 in 10.0 mi SW 15.0 mph - N/A   Overcast
12:55 PM 44.2 °F 36.7 °F 21.7 °F 41% 29.88 in 10.0 mi SW 17.3 mph 23.0 mph N/A   Scattered Clouds
1:55 PM 46.9 °F - 23.2 °F 39% 29.83 in 10.0 mi SW 20.7 mph 26.5 mph N/A   Overcast
2:55 PM 47.8 °F - 23.7 °F 39% 29.80 in 10.0 mi WSW 15.0 mph - N/A   Overcast
3:55 PM 51.8 °F - 25.7 °F 36% 29.76 in 10.0 mi SW 21.9 mph 31.1 mph N/A   Overcast
4:55 PM 51.1 °F - 27.0 °F 39% 29.75 in 10.0 mi WSW 19.6 mph 25.3 mph N/A   Overcast
5:55 PM 51.8 °F - 28.4 °F 41% 29.76 in 10.0 mi West 16.1 mph 21.9 mph N/A   Overcast
6:55 PM 50.0 °F - 28.9 °F 44% 29.78 in 10.0 mi West 12.7 mph 17.3 mph N/A   Overcast
7:55 PM 48.9 °F - 28.6 °F 45% 29.79 in 10.0 mi West 10.4 mph - N/A   Overcast
8:55 PM 47.8 °F - 28.9 °F 48% 29.81 in 10.0 mi Variable 6.9 mph - N/A   Overcast
9:42 PM 48.2 °F - 28.4 °F 46% 29.81 in 10.0 mi West 10.4 mph - N/A   Light Drizzle
9:55 PM 47.8 °F - 29.3 °F 49% 29.81 in 10.0 mi West 9.2 mph - 0.00 in   Light Drizzle
10:00 PM 48.2 °F - 28.4 °F 46% 29.81 in 10.0 mi West 16.1 mph 21.9 mph N/A   Overcast
10:15 PM 48.2 °F - 30.2 °F 50% 29.81 in 10.0 mi West 13.8 mph 25.3 mph N/A   Light Drizzle
10:26 PM 48.2 °F - 30.2 °F 50% 29.81 in 10.0 mi West 10.4 mph 20.7 mph N/A   Overcast
10:36 PM 48.2 °F - 30.2 °F 50% 29.81 in 10.0 mi West 11.5 mph - N/A   Light Drizzle
10:55 PM 47.3 °F - 29.7 °F 50% 29.82 in 10.0 mi West 10.4 mph 16.1 mph 0.00 in   Light Drizzle
11:52 PM 46.4 °F 41.1 °F 30.2 °F 53% 29.81 in 10.0 mi West 11.5 mph 17.3 mph N/A   Overcast
11:55 PM 46.2 °F 41.2 °F 29.7 °F 53% 29.81 in 10.0 mi WNW 10.4 mph 19.6 mph 0.00 in   Overcast